Ord, NE

7:37 PM CST on February 20, 2018 (GMT -0600)
Sharp

Weather History for KODX - November, 2010

Change the Weather History Date:

Saturday, November 27, 2010

  Actual Average Record
Temperature  
Mean Temperature 34 °F 31 °F  
Max Temperature 56 °F 43 °F 78 °F (1998)
Min Temperature 12 °F 19 °F 3 °F (2013)
Degree Days  
Heating Degree Days 31 34  
Month to date heating degree days 769 753  
Since 1 July heating degree days 1267 1373  
Cooling Degree Days 0 0  
Month to date cooling degree days 0 0  
Year to date cooling degree days 866 845  
Moisture  
Dew Point 16 °F    
Average Humidity 56    
Maximum Humidity 92    
Minimum Humidity 20    
Precipitation  
Precipitation 0.00 in 0.03 in 0.63 in (1993)
Month to date precipitation 0.16 0.99  
Year to date precipitation 26.30 24.27  
Sea Level Pressure  
Sea Level Pressure 29.99 in    
Wind  
Wind Speed 6 mph (SSE)    
Max Wind Speed 20 mph    
Max Gust Speed 24 mph    
Visibility 10 miles    
Events      
T = Trace of Precipitation, MM = Missing Value Source: NWS Daily Summary

Daily Weather History Graph

Daily Weather History Graph

Search for Another Location

Airport or City:

Trip Planner

Search our weather history database for the weather conditions in past years. The results will help you decide how hot, cold, wet, or windy it might be!

Date:

Astronomy

Nov. 27, 2010 Rise Set
Actual Time 7:38 AM CST 5:07 PM CST
Civil Twilight 7:08 AM CST 5:38 PM CST
Nautical Twilight 6:33 AM CST 6:12 PM CST
Astronomical Twilight 6:00 AM CST 6:46 PM CST
Moon 11:32 PM CST (11/27) 12:16 PM CST (11/27)
Length of Visible Light 10h 30m
Length of Day
9h 28m
Waning Gibbous, 62% of the Moon is Illuminated
Nov 27
Waning Gibbous
Nov 28
Last Quarter
Dec 5
New
Dec 13
First Quarter
Dec 21
Full

Hourly Weather History & Observations

Time (CST) Temp. Windchill Dew Point Humidity Pressure Visibility Wind Dir Wind Speed Gust Speed Precip Events Conditions
12:53 AM 19.0 °F - 12.9 °F 77% 30.13 in 10.0 mi Calm Calm - N/A   Clear
1:53 AM 17.6 °F - 10.4 °F 73% 30.06 in 10.0 mi Calm Calm - N/A   Clear
2:53 AM 16.0 °F - 10.9 °F 81% 30.12 in 10.0 mi Calm Calm - N/A   Clear
3:53 AM 14.0 °F - 10.0 °F 84% 30.12 in 10.0 mi Calm Calm - N/A   Clear
4:53 AM 14.0 °F 6.5 °F 10.0 °F 84% 30.13 in 10.0 mi NNW 4.6 mph - N/A   Clear
5:53 AM 16.0 °F - 12.0 °F 84% 30.12 in 10.0 mi Calm Calm - N/A   Clear
6:53 AM 12.9 °F - 10.0 °F 88% 30.14 in 10.0 mi Calm Calm - N/A   Clear
7:53 AM 12.9 °F - 9.0 °F 84% 30.15 in 10.0 mi Calm Calm - N/A   Clear
8:53 AM 21.9 °F - 16.0 °F 78% 30.12 in 10.0 mi Calm Calm - N/A   Clear
9:53 AM 32.0 °F 28.7 °F 24.1 °F 73% 30.11 in 10.0 mi ESE 3.5 mph - N/A   Clear
10:53 AM 41.0 °F 39.0 °F 21.9 °F 47% 30.08 in 10.0 mi SSE 3.5 mph - N/A   Clear
11:53 AM 48.9 °F - 24.1 °F 38% 30.02 in 10.0 mi SSW 8.1 mph - N/A   Clear
12:53 PM 54.0 °F - 21.9 °F 29% 29.98 in 10.0 mi SSW 13.8 mph 20.7 mph N/A   Clear
1:53 PM 55.0 °F - 21.0 °F 27% 29.95 in 10.0 mi South 16.1 mph 19.6 mph N/A   Clear
2:53 PM 55.9 °F - 18.0 °F 23% 29.92 in 10.0 mi South 13.8 mph 21.9 mph N/A   Clear
3:53 PM 55.0 °F - 16.0 °F 22% 29.91 in 10.0 mi South 11.5 mph - N/A   Clear
4:53 PM 48.9 °F - 12.9 °F 24% 29.91 in 10.0 mi South 9.2 mph - N/A   Clear
5:53 PM 46.0 °F 41.0 °F 14.0 °F 28% 29.90 in 10.0 mi SSE 10.4 mph - N/A   Clear
6:53 PM 44.1 °F 38.1 °F 15.1 °F 31% 29.88 in 10.0 mi SE 11.5 mph - N/A   Clear
7:53 PM 41.0 °F 36.4 °F 16.0 °F 36% 29.88 in 10.0 mi SSE 6.9 mph - N/A   Clear
8:53 PM 39.0 °F 33.4 °F 19.0 °F 45% 29.86 in 10.0 mi SSE 8.1 mph - N/A   Clear
9:53 PM 39.9 °F 35.1 °F 21.0 °F 47% 29.81 in 10.0 mi SE 6.9 mph - N/A   Clear
10:53 PM 39.0 °F 32.8 °F 21.9 °F 50% 29.78 in 10.0 mi ESE 9.2 mph - N/A   Clear
11:53 PM 36.0 °F 31.1 °F 21.9 °F 57% 29.75 in 10.0 mi ESE 5.8 mph - N/A   Clear